Woodward, OK

5:11 AM CST on January 22, 2018 (GMT -0600)
West Woodward

Weather History for KWWR - April, 2013

Change the Weather History Date:

Thursday, April 25, 2013

  Actual Average (KGAG) Record (KGAG)
Temperature  
Mean Temperature 52 °F -  
Max Temperature 66 °F 75 °F 93 °F (2012)
Min Temperature 39 °F 48 °F 32 °F (1950)
Degree Days  
Heating Degree Days 12    
Growing Degree Days 2 (Base 50)    
Moisture  
Dew Point 27 °F    
Average Humidity 40    
Maximum Humidity 75    
Minimum Humidity 14    
Precipitation  
Precipitation 0.00 in - - ()
Sea Level Pressure  
Sea Level Pressure 30.23 in    
Wind  
Wind Speed 15 mph (South)    
Max Wind Speed 24 mph    
Max Gust Speed 31 mph    
Visibility 10 miles    
Events      
Averages and records for this station are not official NWS values.
T = Trace of Precipitation, MM = Missing Value Source: NWS Daily Summary

Daily Weather History Graph

Daily Weather History Graph

Search for Another Location

Airport or City:

Trip Planner

Search our weather history database for the weather conditions in past years. The results will help you decide how hot, cold, wet, or windy it might be!

Date:

Astronomy

Apr. 25, 2013 Rise Set
Actual Time 6:51 AM CDT 8:21 PM CDT
Civil Twilight 6:24 AM CDT 8:48 PM CDT
Nautical Twilight 5:51 AM CDT 9:21 PM CDT
Astronomical Twilight 5:17 AM CDT 9:55 PM CDT
Moon 8:35 PM CDT (4/25) 6:35 AM CDT (4/25)
Length of Visible Light 14h 24m
Length of Day
13h 29m
Full, 100% of the Moon is Illuminated
Apr 25
Full
Apr 25
Full
May 2
Last Quarter
May 9
New
May 17
First Quarter

Hourly Weather History & Observations

Time (CDT) Temp. Windchill Dew Point Humidity Pressure Visibility Wind Dir Wind Speed Gust Speed Precip Events Conditions
12:15 AM 46.4 °F 40.4 °F 32.0 °F 57% 30.30 in 10.0 mi South 13.8 mph - N/A   Clear
12:35 AM 46.4 °F 40.1 °F 32.0 °F 57% 30.30 in 10.0 mi South 15.0 mph - N/A   Clear
12:55 AM 44.6 °F 38.1 °F 32.0 °F 61% 30.29 in 10.0 mi South 13.8 mph - N/A   Clear
1:15 AM 44.6 °F 38.1 °F 32.0 °F 61% 30.30 in 10.0 mi South 13.8 mph - N/A   Clear
1:35 AM 44.6 °F 37.8 °F 32.0 °F 61% 30.30 in 10.0 mi South 15.0 mph - N/A   Clear
1:55 AM 44.6 °F 39.2 °F 32.0 °F 61% 30.30 in 10.0 mi SSW 10.4 mph - N/A   Clear
2:15 AM 44.6 °F 38.4 °F 32.0 °F 61% 30.30 in 10.0 mi SSW 12.7 mph - N/A   Clear
2:35 AM 42.8 °F 36.6 °F 32.0 °F 66% 30.29 in 10.0 mi SSW 11.5 mph - N/A   Clear
2:55 AM 42.8 °F 36.6 °F 32.0 °F 66% 30.29 in 10.0 mi SW 11.5 mph - N/A   Clear
3:15 AM 42.8 °F 36.2 °F 32.0 °F 66% 30.28 in 10.0 mi SW 12.7 mph - N/A   Clear
3:35 AM 41.0 °F 34.3 °F 32.0 °F 70% 30.28 in 10.0 mi SW 11.5 mph - N/A   Clear
3:55 AM 41.0 °F 34.3 °F 32.0 °F 70% 30.28 in 10.0 mi SSW 11.5 mph - N/A   Clear
4:15 AM 41.0 °F 34.3 °F 32.0 °F 70% 30.29 in 10.0 mi SW 11.5 mph - N/A   Clear
4:35 AM 41.0 °F 34.3 °F 32.0 °F 70% 30.29 in 10.0 mi SW 11.5 mph - N/A   Clear
4:55 AM 41.0 °F 34.7 °F 32.0 °F 70% 30.30 in 10.0 mi SW 10.4 mph - N/A   Clear
5:15 AM 39.2 °F 32.0 °F 32.0 °F 75% 30.30 in 10.0 mi SW 11.5 mph - N/A   Clear
5:35 AM 41.0 °F 34.7 °F 32.0 °F 70% 30.30 in 10.0 mi SW 10.4 mph - N/A   Clear
5:55 AM 41.0 °F 33.9 °F 32.0 °F 70% 30.29 in 10.0 mi SW 12.7 mph - N/A   Clear
6:15 AM 41.0 °F 33.1 °F 32.0 °F 70% 30.29 in 10.0 mi SW 15.0 mph - N/A   Clear
6:35 AM 41.0 °F 33.9 °F 32.0 °F 70% 30.30 in 10.0 mi SW 12.7 mph - N/A   Clear
6:55 AM 41.0 °F 33.5 °F 32.0 °F 70% 30.30 in 10.0 mi SW 13.8 mph - N/A   Clear
7:15 AM 41.0 °F 33.9 °F 32.0 °F 70% 30.30 in 10.0 mi SW 12.7 mph - N/A   Clear
7:35 AM 41.0 °F 33.9 °F 32.0 °F 70% 30.31 in 10.0 mi SSW 12.7 mph - N/A   Clear
7:55 AM 42.8 °F 35.8 °F 32.0 °F 66% 30.31 in 10.0 mi SSW 13.8 mph - N/A   Clear
8:15 AM 44.6 °F 38.1 °F 32.0 °F 61% 30.32 in 10.0 mi SW 13.8 mph - N/A   Clear
8:35 AM 46.4 °F 40.1 °F 32.0 °F 57% 30.31 in 10.0 mi SSW 15.0 mph - N/A   Clear
8:55 AM 48.2 °F - 32.0 °F 54% 30.31 in 10.0 mi SW 13.8 mph - N/A   Clear
9:15 AM 51.8 °F - 32.0 °F 47% 30.31 in 10.0 mi SW 15.0 mph - N/A   Clear
9:35 AM 53.6 °F - 32.0 °F 44% 30.30 in 10.0 mi SW 13.8 mph - N/A   Clear
9:55 AM 57.2 °F - 30.2 °F 36% 30.29 in 10.0 mi SSW 13.8 mph - N/A   Clear
10:15 AM 59.0 °F - 30.2 °F 34% 30.29 in 10.0 mi SSW 12.7 mph - N/A   Clear
10:35 AM 60.8 °F - 28.4 °F 29% 30.30 in 10.0 mi SSW 13.8 mph 18.4 mph N/A   Clear
10:55 AM 62.6 °F - 24.8 °F 24% 30.30 in 10.0 mi South 13.8 mph - N/A   Clear
11:15 AM 64.4 °F - 19.4 °F 18% 30.29 in 10.0 mi South 17.3 mph 23.0 mph N/A   Clear
11:55 AM 62.6 °F - 19.4 °F 19% 30.29 in 10.0 mi South 17.3 mph - N/A   Clear
12:15 PM 62.6 °F - 17.6 °F 18% 30.28 in 10.0 mi South 15.0 mph 21.9 mph N/A   Clear
12:35 PM 64.4 °F - 21.2 °F 19% 30.28 in 10.0 mi South 16.1 mph 23.0 mph N/A   Clear
12:55 PM 66.2 °F - 17.6 °F 15% 30.28 in 10.0 mi South 20.7 mph 26.5 mph N/A   Clear
1:15 PM 64.4 °F - 14.0 °F 14% 30.27 in 10.0 mi South 23.0 mph 31.1 mph N/A   Clear
1:35 PM 64.4 °F - 14.0 °F 14% 30.26 in 10.0 mi South 23.0 mph 28.8 mph N/A   Clear
1:55 PM 64.4 °F - 15.8 °F 15% 30.24 in 10.0 mi South 19.6 mph 28.8 mph N/A   Mostly Cloudy
2:15 PM 64.4 °F - 17.6 °F 16% 30.23 in 10.0 mi SSE 20.7 mph 24.2 mph N/A   Scattered Clouds
2:35 PM 66.2 °F - 17.6 °F 15% 30.23 in 10.0 mi South 16.1 mph 21.9 mph N/A   Scattered Clouds
2:55 PM 64.4 °F - 17.6 °F 16% 30.23 in 10.0 mi South 19.6 mph 25.3 mph N/A   Scattered Clouds
3:15 PM 64.4 °F - 15.8 °F 15% 30.23 in 10.0 mi South 21.9 mph 28.8 mph N/A   Scattered Clouds
3:35 PM 64.4 °F - 17.6 °F 16% 30.21 in 10.0 mi South 19.6 mph 25.3 mph N/A   Scattered Clouds
3:55 PM 64.4 °F - 19.4 °F 18% 30.19 in 10.0 mi South 19.6 mph 24.2 mph N/A   Clear
4:15 PM 66.2 °F - 17.6 °F 15% 30.18 in 10.0 mi South 20.7 mph 26.5 mph N/A   Clear
4:35 PM 64.4 °F - 19.4 °F 18% 30.17 in 10.0 mi SSE 15.0 mph - N/A   Clear
4:55 PM 64.4 °F - 19.4 °F 18% 30.16 in 10.0 mi SSE 15.0 mph 20.7 mph N/A   Clear
5:15 PM 64.4 °F - 21.2 °F 19% 30.16 in 10.0 mi SSE 20.7 mph - N/A   Scattered Clouds
5:35 PM 64.4 °F - 19.4 °F 18% 30.16 in 10.0 mi South 15.0 mph 25.3 mph N/A   Mostly Cloudy
5:55 PM 64.4 °F - 21.2 °F 19% 30.16 in 10.0 mi SSE 18.4 mph 26.5 mph N/A   Scattered Clouds
6:15 PM 64.4 °F - 21.2 °F 19% 30.15 in 10.0 mi SSE 19.6 mph 27.6 mph N/A   Mostly Cloudy
6:35 PM 62.6 °F - 21.2 °F 20% 30.15 in 10.0 mi SSE 19.6 mph - N/A   Scattered Clouds
6:55 PM 62.6 °F - 24.8 °F 24% 30.13 in 10.0 mi SSE 12.7 mph 23.0 mph N/A   Scattered Clouds
7:15 PM 62.6 °F - 26.6 °F 26% 30.12 in 10.0 mi SE 20.7 mph 25.3 mph N/A   Clear
7:35 PM 62.6 °F - 28.4 °F 27% 30.11 in 10.0 mi SE 12.7 mph 23.0 mph N/A   Clear
7:55 PM 62.6 °F - 28.4 °F 27% 30.11 in 10.0 mi SE 17.3 mph - N/A   Clear
8:15 PM 60.8 °F - 30.2 °F 31% 30.09 in 10.0 mi SE 13.8 mph 18.4 mph N/A   Mostly Cloudy
8:35 PM 59.0 °F - 30.2 °F 34% 30.09 in 10.0 mi SE 17.3 mph - N/A   Mostly Cloudy
8:55 PM 59.0 °F - 30.2 °F 34% 30.10 in 10.0 mi SSE 16.1 mph - N/A   Mostly Cloudy
9:15 PM 60.8 °F - 30.2 °F 31% 30.10 in 10.0 mi SSE 23.0 mph 26.5 mph N/A   Overcast
9:35 PM 59.0 °F - 30.2 °F 34% 30.10 in 10.0 mi SSE 20.7 mph 24.2 mph N/A   Mostly Cloudy
9:55 PM 59.0 °F - 32.0 °F 36% 30.10 in 10.0 mi SSE 18.4 mph 23.0 mph N/A   Scattered Clouds
10:15 PM 59.0 °F - 30.2 °F 34% 30.09 in 10.0 mi SSE 17.3 mph 25.3 mph N/A   Clear
10:35 PM 59.0 °F - 30.2 °F 34% 30.09 in 10.0 mi SSE 19.6 mph 26.5 mph N/A   Clear
10:55 PM 59.0 °F - 32.0 °F 36% 30.08 in 10.0 mi SSE 19.6 mph - N/A   Clear
11:15 PM 59.0 °F - 32.0 °F 36% 30.09 in 10.0 mi SSE 17.3 mph 24.2 mph N/A   Clear
11:35 PM 59.0 °F - 32.0 °F 36% 30.08 in 10.0 mi SSE 24.2 mph 29.9 mph N/A   Clear
11:55 PM 59.0 °F - 32.0 °F 36% 30.07 in 10.0 mi SSE 21.9 mph 28.8 mph N/A   Clear